"startDT [UTC]","vpos","CH4 [ppm]","stdev(CH4) [ppm]","CO2 [ppm]","stdev(CO2) [ppm]","H2O_reported [%]","stdev(H2O_reported)","CavityPressure [torr]","CavityTemp [C]","OutletValve","CH4_dry [ppm]","CO2_dry [ppm]","DasTemp [C]","EtalonTemp [C]","WarmBoxTemp [C]","MPVPosition","T_ECpre [C]","T_EC1 [C]","T_EC2 [C]","p_inlet [hPa]","p_in [hPa]","p_out [hPa]","T_inlet [C]","RH_inlet [%]","dwpt_inlet [C]","T_vent [C]","RH_vent [%]","dwpt_vent [C]","flow_vent [l min-1]","flow_inlet [l min-1]","dwpt_sample [C]","T_room [C]"
2013-12-15 00:00:00,0.0,1.91613,0.00032,402.161,0.000,0.1402,0.0007,139.995,45.000,31742.62297,1.91871,402.842,32.500,45.060,45.000,0.00,0.11,-272.58,-272.64,-20,575,-2,21.0,4.4,-21.6,21.0,4.6,-21.1,5.73,2.61,-14.4,27.0
2013-12-15 00:01:00,0.0,1.91597,0.00044,402.161,0.000,0.1396,0.0026,140.002,45.000,31743.39042,1.91869,402.838,32.523,45.060,45.000,0.00,0.11,-272.58,-272.64,-20,574,-3,21.0,4.4,-21.6,21.0,4.6,-21.1,5.73,2.51,-14.4,27.0
2013-12-15 00:02:00,0.0,1.91607,0.00026,402.161,0.000,0.1393,0.0008,140.006,45.000,31746.86890,1.91868,402.836,32.527,45.060,45.000,0.00,0.11,-272.58,-272.65,-19,575,-3,21.0,4.4,-21.6,21.0,4.5,-21.2,5.73,2.61,-14.4,27.1
2013-12-15 00:03:00,0.0,1.91542,0.00046,402.099,0.029,0.1391,0.0009,139.994,45.000,31744.16445,1.91826,402.781,32.554,45.060,45.000,0.00,0.11,-272.58,-272.64,-21,575,-3,21.0,4.4,-21.6,21.0,4.5,-21.2,5.73,2.67,-14.4,27.0
2013-12-15 00:04:00,0.0,1.91499,0.00021,402.086,0.000,0.1388,0.0013,140.005,45.000,31748.88209,1.91765,402.758,32.563,45.060,45.000,0.00,0.11,-272.58,-272.64,-20,574,-3,21.0,4.3,-21.7,21.1,4.5,-21.2,5.73,2.52,-14.4,27.0
2013-12-15 00:05:00,0.0,1.91492,0.00030,402.086,0.000,0.1392,0.0012,139.995,45.000,31746.26109,1.91753,402.761,32.558,45.060,45.000,0.00,0.11,-272.58,-272.64,-20,575,-3,21.0,4.3,-21.7,21.1,4.5,-21.3,5.73,2.57,-14.4,27.0
2013-12-15 00:06:00,0.0,1.91501,0.00024,402.086,0.000,0.1380,0.0018,140.002,45.000,31748.82511,1.91761,402.756,32.563,45.060,45.000,0.00,0.11,-272.58,-272.64,-20,574,-3,21.0,4.3,-21.8,21.0,4.5,-21.3,5.73,2.68,-14.4,27.0
2013-12-15 00:07:00,0.0,1.91487,0.00036,402.064,0.035,0.1364,0.0016,140.001,45.000,31748.74290,1.91747,402.734,32.570,45.060,45.000,0.00,0.11,-272.58,-272.64,-19,575,-3,21.0,4.3,-21.8,21.1,4.5,-21.3,5.73,2.56,-14.4,27.0
2013-12-15 00:08:00,0.0,1.91509,0.00012,402.007,0.000,0.1375,0.0001,139.999,45.000,31746.25999,1.91759,402.671,32.578,45.060,45.000,0.00,0.11,-272.58,-272.64,-20,575,-3,21.0,4.3,-21.8,21.1,4.5,-21.3,5.73,2.53,-14.4,27.0
2013-12-15 00:09:00,0.0,1.91481,0.00051,402.007,0.000,0.1382,0.0013,140.003,45.000,31746.43653,1.91748,402.677,32.594,45.060,45.000,0.00,0.11,-272.58,-272.64,-20,575,-3,21.0,4.3,-21.8,21.0,4.5,-21.3,5.73,2.67,-14.4,27.0
2013-12-15 00:10:00,0.0,1.91508,0.00030,402.007,0.000,0.1374,0.0018,140.001,45.000,31746.64544,1.91758,402.673,32.617,45.060,45.000,0.00,0.11,-272.58,-272.64,-19,575,-3,21.1,4.3,-21.7,21.1,4.5,-21.3,5.73,2.62,-14.4,27.0
2013-12-15 00:11:00,0.0,1.91522,0.00023,402.007,0.000,0.1355,0.0013,139.995,45.000,31745.57608,1.91785,402.665,32.633,45.060,45.000,0.00,0.11,-272.58,-272.64,-20,575,-3,21.1,4.3,-21.8,21.1,4.5,-21.3,5.73,2.51,-14.4,27.0
2013-12-15 00:12:00,0.0,1.91494,0.00035,402.007,0.000,0.1358,0.0013,140.002,45.000,31752.17443,1.91751,402.666,32.631,45.060,45.000,0.00,0.11,-272.58,-272.65,-20,575,-3,21.1,4.3,-21.8,21.1,4.4,-21.4,5.73,2.62,-14.4,27.0
2013-12-15 00:13:00,0.0,1.91503,0.00028,402.007,0.000,0.1366,0.0013,140.005,45.000,31750.13829,1.91766,402.668,32.650,45.060,45.000,0.00,0.11,-272.58,-272.64,-19,575,-3,21.1,4.3,-21.8,21.1,4.4,-21.4,5.73,2.66,-14.4,27.0
2013-12-15 00:14:00,0.0,1.91508,0.00073,402.007,0.000,0.1362,0.0009,140.003,45.000,31748.01116,1.91755,402.666,32.663,45.060,45.000,0.00,0.11,-272.58,-272.64,-20,575,-2,21.0,4.3,-21.9,21.1,4.4,-21.4,5.73,2.53,-14.4,27.0
2013-12-15 00:15:00,0.0,1.91496,0.00032,402.007,0.000,0.1366,0.0023,139.994,45.000,31744.14440,1.91766,402.669,32.649,45.060,45.000,0.00,0.11,-272.58,-272.64,-20,574,-3,21.0,4.3,-21.9,21.0,4.4,-21.4,5.73,2.56,-14.4,27.0
2013-12-15 00:16:00,0.0,1.91520,0.00031,402.007,0.000,0.1368,0.0008,140.002,45.000,31749.01131,1.91763,402.670,32.677,45.060,45.000,0.00,0.11,-272.58,-272.64,-19,575,-3,21.0,4.3,-21.9,21.0,4.4,-21.4,5.73,2.68,-14.4,27.0
2013-12-15 00:17:00,0.0,1.91532,0.00044,402.007,0.000,0.1350,0.0012,140.004,45.000,31749.70664,1.91780,402.663,32.679,45.060,45.000,0.00,0.11,-272.58,-272.64,-20,575,-3,20.9,4.3,-21.9,21.0,4.4,-21.4,5.73,2.58,-14.4,27.0
2013-12-15 00:18:00,0.0,1.91494,0.00044,401.955,0.047,0.1344,0.0011,140.012,45.000,31754.05861,1.91776,402.617,32.688,45.060,45.000,0.00,0.11,-272.58,-272.64,-20,574,-3,20.9,4.3,-22.0,21.0,4.4,-21.5,5.73,2.52,-14.4,27.0
2013-12-15 00:19:00,0.0,1.91487,0.00046,401.913,0.000,0.1356,0.0016,139.999,45.000,31748.04796,1.91741,402.568,32.688,45.060,45.000,0.00,0.11,-272.58,-272.64,-20,575,-3,20.9,4.3,-21.9,21.0,4.4,-21.5,5.73,2.65,-14.4,27.0
2013-12-15 00:20:00,0.0,1.91442,0.00047,401.947,0.028,0.1340,0.0025,139.996,45.000,31748.20734,1.91698,402.593,32.688,45.060,45.000,0.00,0.11,-272.58,-272.64,-20,574,-3,20.9,4.3,-21.9,21.0,4.4,-21.4,5.73,2.64,-14.4,27.0
2013-12-15 00:21:00,0.0,1.91498,0.00029,401.969,0.000,0.1341,0.0010,139.993,45.000,31746.99590,1.91748,402.618,32.688,45.060,45.000,0.00,0.11,-272.58,-272.64,-20,574,-3,20.9,4.3,-21.9,21.0,4.4,-21.5,5.73,2.52,-14.4,27.0
2013-12-15 00:22:00,0.0,1.91499,0.00044,401.969,0.000,0.1351,0.0005,139.992,45.000,31745.78319,1.91731,402.623,32.688,45.060,45.000,0.00,0.11,-272.58,-272.64,-20,575,-3,20.9,4.3,-21.9,21.0,4.4,-21.5,5.73,2.58,-14.4,27.0
2013-12-15 00:23:00,0.0,1.91497,0.00074,401.969,0.000,0.1332,0.0009,139.997,45.000,31746.85153,1.91768,402.616,32.688,45.060,45.000,0.00,0.11,-272.57,-272.64,-21,574,-3,20.9,4.2,-22.0,21.0,4.4,-21.5,5.73,2.67,-14.4,27.0
2013-12-15 00:24:00,0.0,1.91485,0.00030,401.969,0.000,0.1350,0.0014,140.004,45.000,31747.96981,1.91739,402.622,32.689,45.060,45.000,0.00,0.11,-272.58,-272.64,-20,574,-3,21.0,4.3,-22.0,21.0,4.4,-21.5,5.73,2.56,-14.4,27.0
2013-12-15 00:25:00,0.0,1.91455,0.00070,401.969,0.000,0.1337,0.0014,140.002,45.000,31748.03384,1.91699,402.617,32.696,45.060,45.000,0.00,0.11,-272.58,-272.65,-20,574,-3,21.0,4.2,-22.0,21.0,4.4,-21.5,5.73,2.53,-14.4,27.0
2013-12-15 00:26:00,0.0,1.91461,0.00042,401.969,0.000,0.1345,0.0019,140.006,45.000,31748.88448,1.91726,402.622,32.724,45.060,45.000,0.00,0.11,-272.58,-272.64,-20,574,-3,20.9,4.3,-22.0,21.0,4.4,-21.5,5.73,2.66,-14.4,27.0
2013-12-15 00:27:00,0.0,1.91483,0.00044,401.969,0.000,0.1350,0.0010,140.001,45.000,31748.37489,1.91736,402.622,32.727,45.060,45.000,0.00,0.11,-272.58,-272.64,-20,574,-3,21.0,4.2,-22.0,21.0,4.4,-21.5,5.73,2.63,-14.4,27.0
2013-12-15 00:28:00,0.0,1.91478,0.00025,401.969,0.000,0.1331,0.0004,139.996,45.000,31748.81639,1.91734,402.616,32.734,45.060,45.000,0.00,0.11,-272.58,-272.64,-20,575,-3,21.0,4.3,-22.0,21.0,4.4,-21.5,5.73,2.51,-14.4,27.0
2013-12-15 00:29:00,0.0,1.91481,0.00034,401.969,0.000,0.1356,0.0016,140.002,45.000,31750.96162,1.91733,402.625,32.750,45.060,45.000,0.00,0.11,-272.58,-272.65,-20,574,-3,21.0,4.2,-22.0,21.0,4.4,-21.5,5.73,2.58,-14.4,27.0
2013-12-15 00:30:00,0.0,1.91484,0.00019,401.969,0.000,0.1341,0.0019,140.005,45.000,31751.36342,1.91735,402.619,32.750,45.059,45.000,0.00,0.11,-272.58,-272.64,-20,574,-3,21.0,4.2,-21.9,21.0,4.4,-21.5,5.73,2.67,-14.4,27.1
2013-12-15 00:31:00,0.0,1.91486,0.00017,401.969,0.000,0.1347,0.0021,140.000,45.000,31751.13141,1.91742,402.621,32.750,45.059,45.000,0.00,0.11,-272.58,-272.64,-20,575,-3,21.0,4.2,-21.9,21.1,4.4,-21.5,5.73,2.58,-14.4,27.1
2013-12-15 00:32:00,0.0,1.91509,0.00028,401.969,0.000,0.1346,0.0009,140.000,45.000,31749.41207,1.91751,402.622,32.750,45.060,45.000,0.00,0.11,-272.58,-272.64,-20,574,-3,21.0,4.2,-22.0,21.1,4.4,-21.5,5.73,2.51,-14.4,27.1
2013-12-15 00:33:00,0.0,1.91582,0.00039,401.969,0.000,0.1339,0.0012,140.005,45.000,31748.40723,1.91827,402.618,32.750,45.060,45.000,0.00,0.11,-272.58,-272.64,-20,574,-3,21.0,4.2,-22.0,21.1,4.4,-21.5,5.73,2.63,-14.4,27.1
2013-12-15 00:34:00,0.0,1.91599,0.00007,401.969,0.000,0.1348,0.0025,139.997,45.000,31747.21056,1.91847,402.620,32.754,45.060,45.000,0.00,0.11,-272.58,-272.64,-21,575,-3,21.0,4.2,-22.0,21.1,4.4,-21.5,5.73,2.65,-14.3,27.1
2013-12-15 00:35:00,0.0,1.91577,0.00049,401.969,0.000,0.1333,0.0010,140.005,45.000,31751.25723,1.91827,402.617,32.750,45.060,45.000,0.00,0.11,-272.58,-272.64,-21,574,-3,21.1,4.2,-22.0,21.1,4.4,-21.6,5.73,2.53,-14.4,27.1
2013-12-15 00:36:00,0.0,1.91550,0.00065,401.969,0.000,0.1337,0.0016,140.000,45.000,31752.14975,1.91835,402.617,32.750,45.060,45.000,0.00,0.11,-272.58,-272.64,-20,574,-3,21.1,4.2,-22.1,21.1,4.3,-21.6,5.73,2.55,-14.4,27.1
2013-12-15 00:37:00,0.0,1.91530,0.00043,401.997,0.030,0.1314,0.0017,139.998,45.000,31752.43642,1.91778,402.630,32.750,45.060,45.000,0.00,0.11,-272.58,-272.64,-21,575,-3,21.1,4.2,-22.1,21.1,4.3,-21.6,5.73,2.66,-14.4,27.1
2013-12-15 00:38:00,0.0,1.91506,0.00033,402.030,0.000,0.1313,0.0014,140.004,45.000,31753.22432,1.91743,402.667,32.750,45.060,45.000,0.00,0.11,-272.57,-272.64,-20,575,-3,21.1,4.1,-22.2,21.1,4.3,-21.7,5.73,2.61,-14.4,27.1
2013-12-15 00:39:00,0.0,1.91570,0.00027,402.062,0.024,0.1325,0.0016,139.997,45.000,31752.81784,1.91809,402.700,32.750,45.060,45.000,0.00,0.11,-272.58,-272.64,-20,575,-3,21.1,4.2,-22.2,21.1,4.3,-21.7,5.73,2.51,-14.4,27.1
2013-12-15 00:40:00,0.0,1.91551,0.00031,402.079,0.000,0.1338,0.0026,140.000,45.000,31751.42715,1.91812,402.727,32.742,45.060,45.000,0.00,0.11,-272.57,-272.64,-20,575,-3,21.0,4.2,-22.2,21.1,4.3,-21.7,5.73,2.59,-14.4,27.1
2013-12-15 00:41:00,0.0,1.91549,0.00021,402.079,0.000,0.1334,0.0014,139.999,45.000,31751.39720,1.91804,402.723,32.746,45.060,45.000,0.00,0.11,-272.58,-272.64,-20,574,-3,21.0,4.2,-22.2,21.1,4.3,-21.7,5.73,2.67,-14.3,27.1
2013-12-15 00:42:00,0.0,1.91581,0.00027,402.079,0.000,0.1324,0.0020,140.001,45.000,31751.15740,1.91824,402.723,32.739,45.060,45.000,0.00,0.11,-272.58,-272.64,-20,574,-3,21.0,4.1,-22.3,21.1,4.3,-21.7,5.73,2.57,-14.4,27.0
2013-12-15 00:43:00,0.0,1.91556,0.00057,402.079,0.000,0.1305,0.0013,139.990,45.000,31748.11097,1.91798,402.713,32.739,45.060,45.000,0.00,0.11,-272.58,-272.64,-20,575,-3,20.9,4.2,-22.2,21.0,4.3,-21.7,5.73,2.52,-14.4,27.0
2013-12-15 00:44:00,0.0,1.91555,0.00022,402.061,0.010,0.1305,0.0028,139.995,45.000,31749.15648,1.91809,402.699,32.699,45.060,45.000,0.00,0.11,-272.58,-272.64,-20,574,-3,21.0,4.2,-22.2,21.1,4.3,-21.7,5.73,2.64,-14.4,27.0
2013-12-15 00:45:00,0.0,1.91526,0.00039,402.056,0.000,0.1308,0.0017,139.993,45.000,31748.59340,1.91780,402.687,32.706,45.060,45.000,0.00,0.11,-272.58,-272.64,-20,574,-3,20.9,4.1,-22.3,21.0,4.3,-21.8,5.73,2.65,-14.4,27.0
2013-12-15 00:46:00,0.0,1.91558,0.00035,402.056,0.000,0.1298,0.0011,140.000,45.000,31749.32492,1.91798,402.685,32.691,45.060,45.000,0.00,0.11,-272.58,-272.64,-20,574,-3,21.0,4.1,-22.3,21.0,4.3,-21.8,5.73,2.53,-14.4,27.0
2013-12-15 00:47:00,0.0,1.91573,0.00030,402.056,0.000,0.1306,0.0015,140.006,45.000,31749.86917,1.91814,402.690,32.688,45.060,45.000,0.00,0.11,-272.57,-272.64,-20,574,-3,21.0,4.1,-22.3,21.0,4.3,-21.8,5.73,2.55,-14.4,27.0
2013-12-15 00:48:00,0.0,1.91565,0.00048,402.056,0.000,0.1304,0.0019,140.005,45.000,31748.47378,1.91813,402.687,32.695,45.060,45.000,0.00,0.11,-272.58,-272.64,-20,574,-3,21.0,4.1,-22.3,21.0,4.3,-21.8,5.73,2.66,-14.4,27.0
2013-12-15 00:49:00,0.0,1.91628,0.00068,402.056,0.000,0.1304,0.0022,140.006,45.000,31746.75972,1.91850,402.689,32.695,45.060,45.000,0.00,0.11,-272.58,-272.64,-21,575,-3,21.0,4.1,-22.3,21.0,4.3,-21.8,5.73,2.61,-14.4,27.0
2013-12-15 00:50:00,0.0,1.91639,0.00026,402.056,0.000,0.1296,0.0018,140.002,45.000,31745.71256,1.91890,402.683,32.688,45.060,45.000,0.00,0.11,-272.58,-272.64,-21,574,-3,21.0,4.1,-22.3,21.1,4.3,-21.7,5.73,2.51,-14.4,27.0
2013-12-15 00:51:00,0.0,1.91628,0.00022,402.056,0.000,0.1299,0.0008,140.002,45.000,31744.94909,1.91871,402.685,32.688,45.060,45.000,0.00,0.11,-272.58,-272.64,-20,574,-3,21.0,4.1,-22.3,21.1,4.3,-21.8,5.73,2.58,-14.4,27.0
2013-12-15 00:52:00,0.0,1.91673,0.00024,402.056,0.000,0.1311,0.0016,139.998,45.000,31745.02965,1.91916,402.690,32.688,45.060,45.000,0.00,0.11,-272.58,-272.64,-20,574,-3,21.0,4.1,-22.3,21.1,4.3,-21.8,5.73,2.67,-14.4,27.1
2013-12-15 00:53:00,0.0,1.91708,0.00046,402.056,0.000,0.1301,0.0011,140.002,45.000,31741.10221,1.91939,402.687,32.688,45.060,45.000,0.00,0.11,-272.58,-272.64,-21,574,-3,21.0,4.1,-22.3,21.0,4.3,-21.8,5.73,2.58,-14.4,27.1
2013-12-15 00:54:00,0.0,1.91754,0.00042,402.178,0.173,0.1319,0.0008,140.005,45.000,31742.31981,1.92004,402.776,32.686,45.059,45.000,0.00,0.11,-272.58,-272.64,-20,574,-3,21.0,4.1,-22.3,21.1,4.3,-21.7,5.73,2.51,-14.4,27.0
2013-12-15 00:55:00,0.0,1.91746,0.00027,402.423,0.000,0.1313,0.0019,140.005,45.000,31744.42191,1.91994,403.058,32.676,45.060,45.000,0.00,0.11,-272.58,-272.64,-20,574,-3,21.0,4.1,-22.2,21.1,4.3,-21.7,5.73,2.61,-14.4,27.1
2013-12-15 00:56:00,0.0,1.91752,0.00027,402.423,0.000,0.1308,0.0004,140.001,45.000,31742.87759,1.91999,403.060,32.678,45.060,45.000,0.00,0.11,-272.58,-272.64,-21,574,-3,21.0,4.1,-22.3,21.0,4.3,-21.8,5.73,2.66,-14.4,27.1
2013-12-15 00:57:00,0.0,1.91775,0.00033,402.423,0.000,0.1314,0.0016,139.998,45.000,31741.44942,1.92010,403.060,32.658,45.060,45.000,0.00,0.11,-272.58,-272.64,-20,574,-3,21.0,4.1,-22.2,21.0,4.3,-21.8,5.73,2.56,-14.4,27.1
2013-12-15 00:58:00,0.0,1.91777,0.00030,402.423,0.000,0.1303,0.0016,140.001,45.000,31744.03886,1.92030,403.056,32.643,45.060,45.000,0.00,0.11,-272.58,-272.64,-20,575,-3,21.0,4.1,-22.2,21.1,4.3,-21.8,5.73,2.52,-14.4,27.1
2013-12-15 00:59:00,0.0,1.91795,0.00034,402.423,0.000,0.1324,0.0012,140.003,45.000,31743.42217,1.92030,403.063,32.625,45.060,45.000,0.00,0.11,-272.58,-272.64,-21,574,-3,21.0,4.1,-22.3,21.1,4.3,-21.7,5.73,2.62,-14.4,27.1
2013-12-15 01:00:00,0.0,1.91794,0.00046,402.423,0.000,0.1321,0.0007,140.008,45.000,31747.42092,1.92056,403.063,32.632,45.060,45.000,0.00,0.11,-272.58,-272.64,-21,574,-3,21.0,4.1,-22.2,21.1,4.3,-21.7,5.73,2.65,-14.4,27.1
2013-12-15 01:01:00,0.0,1.91785,0.00033,402.423,0.000,0.1310,0.0016,139.997,45.000,31745.35144,1.92033,403.060,32.625,45.060,45.000,0.00,0.11,-272.58,-272.64,-21,574,-3,21.0,4.1,-22.3,21.1,4.3,-21.8,5.73,2.56,-14.4,27.1
2013-12-15 01:02:00,0.0,1.91815,0.00039,402.423,0.000,0.1325,0.0020,139.996,45.000,31742.35821,1.92044,403.062,32.625,45.060,45.000,0.00,0.11,-272.57,-272.64,-21,574,-3,21.0,4.2,-22.2,21.1,4.3,-21.7,5.73,2.52,-14.4,27.0
2013-12-15 01:03:00,0.0,1.91825,0.00025,402.423,0.000,0.1331,0.0007,139.998,45.000,31744.50234,1.92079,403.069,32.618,45.060,45.000,0.00,0.11,-272.58,-272.64,-21,574,-3,21.0,4.2,-22.2,21.0,4.3,-21.7,5.73,2.62,-14.4,27.0
2013-12-15 01:04:00,0.0,1.91839,0.00062,402.423,0.000,0.1327,0.0018,140.006,45.000,31744.52936,1.92086,403.067,32.625,45.060,45.000,0.00,0.11,-272.58,-272.64,-21,574,-3,21.0,4.2,-22.2,21.0,4.3,-21.7,5.73,2.65,-14.4,27.0
2013-12-15 01:05:00,0.0,1.91818,0.00063,402.423,0.000,0.1312,0.0017,140.003,45.000,31742.25259,1.92080,403.059,32.610,45.060,45.000,0.00,0.11,-272.58,-272.64,-21,575,-3,21.0,4.2,-22.2,21.0,4.3,-21.7,5.73,2.56,-14.5,27.0
2013-12-15 01:06:00,0.0,1.91844,0.00071,402.423,0.000,0.1316,0.0014,140.001,45.000,31739.81107,1.92098,403.061,32.575,45.060,45.000,0.00,0.11,-272.58,-272.64,-21,574,-3,20.9,4.2,-22.2,21.0,4.3,-21.7,5.73,2.52,-14.5,27.0
2013-12-15 01:07:00,0.0,1.91854,0.00038,402.423,0.000,0.1310,0.0015,140.006,45.000,31739.67148,1.92086,403.060,32.563,45.060,45.000,0.00,0.11,-272.58,-272.64,-21,574,-3,20.9,4.2,-22.2,21.0,4.3,-21.7,5.73,2.60,-14.5,27.0
2013-12-15 01:08:00,0.0,1.91824,0.00032,402.423,0.000,0.1315,0.0015,139.999,45.000,31737.07520,1.92079,403.061,32.563,45.060,45.000,0.00,0.11,-272.58,-272.64,-21,574,-3,20.9,4.2,-22.2,21.0,4.3,-21.7,5.73,2.66,-14.5,27.0
2013-12-15 01:09:00,0.0,1.91857,0.00022,402.423,0.000,0.1329,0.0012,140.000,45.000,31735.55797,1.92103,403.065,32.536,45.060,45.000,0.00,0.11,-272.58,-272.65,-21,574,-3,20.9,4.2,-22.3,21.0,4.3,-21.7,5.73,2.57,-14.5,27.0
2013-12-15 01:10:00,0.0,1.91895,0.00023,402.423,0.000,0.1324,0.0023,139.998,45.000,31733.46294,1.92137,403.064,32.514,45.060,45.000,0.00,0.11,-272.58,-272.64,-21,574,-3,20.9,4.2,-22.3,21.0,4.3,-21.8,5.73,2.52,-14.5,27.0
2013-12-15 01:11:00,0.0,1.91890,0.00019,402.423,0.000,0.1308,0.0024,139.999,45.000,31733.64098,1.92140,403.061,32.500,45.060,45.000,0.00,0.11,-272.58,-272.64,-21,574,-3,20.9,4.2,-22.3,21.0,4.3,-21.8,5.73,2.60,-14.5,27.0
2013-12-15 01:12:00,0.0,1.91871,0.00020,402.423,0.000,0.1323,0.0009,139.991,45.000,31732.61497,1.92124,403.064,32.500,45.060,45.000,0.00,0.11,-272.58,-272.64,-21,574,-3,20.9,4.2,-22.2,21.0,4.3,-21.7,5.73,2.66,-14.5,27.0
2013-12-15 01:13:00,0.0,1.91889,0.00041,402.423,0.000,0.1320,0.0019,140.002,45.000,31733.73351,1.92138,403.064,32.499,45.060,45.000,0.00,0.11,-272.58,-272.64,-21,573,-3,20.9,4.2,-22.2,21.0,4.4,-21.7,5.73,2.57,-14.5,27.0
2013-12-15 01:14:00,0.0,1.91929,0.00049,402.423,0.000,0.1332,0.0014,139.998,45.000,31731.53420,1.92164,403.067,32.498,45.060,45.000,0.00,0.11,-272.58,-272.64,-20,574,-3,20.9,4.2,-22.1,21.0,4.4,-21.7,5.73,2.52,-14.5,27.0
2013-12-15 01:15:00,0.0,1.91919,0.00015,402.479,0.113,0.1340,0.0016,139.999,45.000,31730.86024,1.92176,403.102,32.500,45.060,45.000,0.00,0.11,-272.58,-272.64,-21,574,-3,20.9,4.2,-22.1,21.0,4.4,-21.6,5.73,2.61,-14.5,27.0
2013-12-15 01:16:00,0.0,1.91977,0.00033,402.706,0.000,0.1307,0.0020,140.007,45.000,31735.97277,1.92222,403.342,32.486,45.060,45.000,0.00,0.11,-272.58,-272.64,-20,574,-3,20.9,4.2,-22.1,21.0,4.4,-21.7,5.73,2.66,-14.5,27.0
2013-12-15 01:17:00,0.0,1.91941,0.00064,402.706,0.000,0.1334,0.0005,139.998,45.000,31732.59895,1.92179,403.352,32.468,45.060,45.000,0.00,0.11,-272.58,-272.64,-20,574,-3,20.9,4.2,-22.1,21.0,4.4,-21.6,5.73,2.56,-14.5,27.0
2013-12-15 01:18:00,0.0,1.91981,0.00028,402.706,0.000,0.1332,0.0015,140.001,45.000,31733.87755,1.92242,403.354,32.456,45.060,45.000,0.00,0.11,-272.58,-272.64,-20,574,-3,20.9,4.2,-22.1,21.0,4.4,-21.6,5.73,2.52,-14.5,27.0
2013-12-15 01:19:00,0.0,1.91983,0.00030,402.706,0.000,0.1346,0.0017,139.991,45.000,31729.58703,1.92228,403.356,32.464,45.060,45.000,0.00,0.11,-272.58,-272.65,-20,574,-3,20.9,4.2,-22.1,21.0,4.4,-21.6,5.73,2.61,-14.5,27.0
2013-12-15 01:20:00,0.0,1.92000,0.00051,402.757,0.082,0.1332,0.0007,140.004,45.000,31732.37743,1.92245,403.388,32.455,45.060,45.000,0.00,0.11,-272.58,-272.64,-20,574,-3,20.9,4.2,-22.0,21.0,4.4,-21.6,5.73,2.66,-14.6,27.0
2013-12-15 01:21:00,0.0,1.92015,0.00048,402.891,0.000,0.1341,0.0009,140.002,45.000,31732.45741,1.92290,403.543,32.476,45.060,45.000,0.00,0.11,-272.58,-272.64,-20,574,-3,20.9,4.3,-22.0,21.0,4.4,-21.5,5.73,2.56,-14.6,27.0
2013-12-15 01:22:00,0.0,1.92010,0.00033,402.891,0.000,0.1351,0.0015,140.003,45.000,31731.44176,1.92256,403.546,32.476,45.060,45.000,0.00,0.11,-272.58,-272.65,-20,574,-3,20.9,4.3,-22.0,21.0,4.4,-21.5,5.73,2.52,-14.6,27.0
2013-12-15 01:23:00,0.0,1.92031,0.00027,402.891,0.000,0.1368,0.0012,140.008,45.000,31730.35321,1.92278,403.554,32.471,45.060,45.000,0.00,0.11,-272.58,-272.64,-20,574,-3,20.9,4.3,-21.9,21.0,4.4,-21.5,5.73,2.62,-14.6,27.0
2013-12-15 01:24:00,0.0,1.92089,0.00036,402.891,0.000,0.1349,0.0019,140.000,45.000,31729.12665,1.92335,403.551,32.442,45.060,45.000,0.00,0.11,-272.58,-272.64,-20,574,-3,20.9,4.3,-21.9,21.0,4.5,-21.4,5.73,2.65,-14.6,27.0
2013-12-15 01:25:00,0.0,1.92114,0.00017,402.891,0.000,0.1367,0.0009,139.999,45.000,31727.27744,1.92366,403.553,32.438,45.060,45.000,0.00,0.11,-272.58,-272.64,-21,574,-3,20.9,4.3,-21.9,21.0,4.5,-21.4,5.73,2.55,-14.6,27.0
2013-12-15 01:26:00,0.0,1.92106,0.00040,402.891,0.000,0.1366,0.0002,140.004,45.000,31730.61494,1.92379,403.555,32.438,45.060,45.000,0.00,0.11,-272.58,-272.65,-20,573,-3,20.9,4.3,-21.9,21.0,4.5,-21.4,5.73,2.52,-14.6,27.0
2013-12-15 01:27:00,0.0,1.92083,0.00031,402.891,0.000,0.1361,0.0025,140.001,45.000,31730.57027,1.92328,403.553,32.438,45.060,45.000,0.00,0.11,-272.58,-272.64,-20,574,-3,20.9,4.3,-22.0,21.0,4.4,-21.4,5.73,2.62,-14.6,26.9
2013-12-15 01:28:00,0.0,1.92126,0.00027,402.891,0.000,0.1344,0.0010,139.998,45.000,31728.68210,1.92376,403.544,32.438,45.060,45.000,0.00,0.11,-272.58,-272.64,-21,574,-2,20.9,4.3,-22.0,21.0,4.4,-21.5,5.73,2.65,-14.6,27.0
2013-12-15 01:29:00,0.0,1.92162,0.00012,402.891,0.000,0.1350,0.0009,139.999,45.000,31727.04658,1.92415,403.546,32.438,45.060,45.000,0.00,0.11,-272.58,-272.64,-20,574,-3,20.9,4.3,-22.0,21.0,4.4,-21.5,5.73,2.55,-14.6,27.0
2013-12-15 01:30:00,0.0,1.92198,0.00035,402.891,0.000,0.1359,0.0012,140.007,45.000,31729.78668,1.92446,403.551,32.431,45.060,45.000,0.00,0.11,-272.57,-272.64,-20,574,-3,20.9,4.3,-22.0,21.0,4.4,-21.5,5.73,2.52,-14.6,27.0
2013-12-15 01:31:00,0.0,1.92242,0.00032,402.891,0.000,0.1361,0.0019,139.998,45.000,31725.24121,1.92495,403.554,32.438,45.060,45.000,0.00,0.11,-272.58,-272.64,-21,575,-3,20.9,4.3,-22.0,21.0,4.4,-21.5,5.73,2.63,-14.6,27.0
2013-12-15 01:32:00,0.0,1.92237,0.00030,402.891,0.000,0.1350,0.0006,139.996,45.000,31727.29166,1.92493,403.546,32.434,45.060,45.000,0.00,0.11,-272.58,-272.64,-20,574,-3,20.9,4.3,-22.0,21.0,4.4,-21.5,5.73,2.65,-14.6,26.9
2013-12-15 01:33:00,0.0,1.92175,0.00027,403.077,0.140,0.1347,0.0016,140.004,45.000,31730.40762,1.92436,403.706,32.435,45.060,45.000,0.00,0.11,-272.58,-272.64,-20,574,-3,20.9,4.3,-21.9,21.0,4.4,-21.5,5.73,2.54,-14.6,27.0
2013-12-15 01:34:00,0.0,1.92234,0.00029,403.183,0.000,0.1354,0.0017,140.004,45.000,31728.31719,1.92482,403.840,32.438,45.060,45.000,0.00,0.11,-272.58,-272.64,-20,574,-3,20.9,4.3,-21.9,21.0,4.5,-21.4,5.73,2.53,-14.6,26.9
2013-12-15 01:35:00,0.0,1.92267,0.00044,403.183,0.000,0.1377,0.0006,139.996,45.000,31723.19144,1.92511,403.849,32.438,45.060,45.000,0.00,0.11,-272.58,-272.64,-21,573,-3,20.9,4.3,-21.9,21.0,4.5,-21.4,5.73,2.62,-14.6,26.9
2013-12-15 01:36:00,0.0,1.92276,0.00032,403.183,0.000,0.1366,0.0016,139.998,45.000,31723.77328,1.92542,403.847,32.419,45.060,45.000,0.00,0.11,-272.58,-272.64,-19,573,-3,20.9,4.3,-21.8,20.9,4.5,-21.4,5.73,2.65,-14.6,26.9
2013-12-15 01:37:00,0.0,1.92304,0.00026,403.183,0.000,0.1362,0.0006,139.997,45.000,31724.80290,1.92567,403.846,32.423,45.060,45.000,0.00,0.11,-272.58,-272.64,-19,576,-1,20.9,4.3,-21.8,20.9,4.5,-21.3,5.73,2.55,-14.6,26.9
2013-12-15 01:38:00,0.0,1.92344,0.00036,403.191,0.003,0.1369,0.0020,140.002,45.000,31725.22070,1.92585,403.854,32.380,45.060,45.000,0.00,0.11,-272.58,-272.64,-20,575,-1,20.9,4.4,-21.8,20.9,4.5,-21.3,5.73,2.53,-14.6,26.9
2013-12-15 01:39:00,0.0,1.92349,0.00016,403.191,0.000,0.1378,0.0012,140.012,45.000,31724.68630,1.92615,403.862,32.383,45.060,45.000,0.00,0.11,-272.58,-272.65,-19,580,-4,20.9,4.4,-21.8,20.9,4.5,-21.3,5.73,2.63,-14.6,26.9
2013-12-15 01:40:00,0.0,1.92356,0.00021,403.191,0.000,0.1396,0.0027,140.001,45.000,31721.84280,1.92623,403.869,32.391,45.060,45.000,0.00,0.11,-272.58,-272.64,-19,576,-3,20.9,4.4,-21.7,21.0,4.5,-21.3,5.73,2.64,-14.6,26.9
2013-12-15 01:41:00,0.0,1.92318,0.00051,403.191,0.000,0.1383,0.0019,140.007,45.000,31725.09272,1.92569,403.863,32.389,45.060,45.000,0.00,0.11,-272.58,-272.64,-20,575,-3,20.9,4.4,-21.7,20.9,4.5,-21.3,5.73,2.54,-14.6,26.9
2013-12-15 01:42:00,0.0,1.92372,0.00010,403.191,0.000,0.1397,0.0011,139.995,45.000,31720.59341,1.92636,403.870,32.385,45.060,45.000,0.00,0.11,-272.58,-272.64,-19,571,-3,20.9,4.4,-21.7,20.9,4.5,-21.2,5.73,2.53,-14.6,26.9
2013-12-15 01:43:00,0.0,1.92359,0.00037,403.191,0.000,0.1372,0.0017,140.004,45.000,31721.76400,1.92618,403.861,32.377,45.060,45.000,0.00,0.11,-272.58,-272.64,-17,573,-2,20.9,4.4,-21.7,20.9,4.6,-21.2,5.73,2.63,-14.7,26.9
2013-12-15 01:44:00,0.0,1.92400,0.00018,403.191,0.000,0.1398,0.0016,140.002,45.000,31720.24510,1.92665,403.869,32.390,45.060,45.000,0.00,0.11,-272.58,-272.64,-23,575,-3,20.9,4.4,-21.6,20.9,4.6,-21.2,5.73,2.65,-14.7,26.9
2013-12-15 01:45:00,0.0,1.92407,0.00017,403.191,0.000,0.1387,0.0011,140.011,45.000,31722.37855,1.92665,403.866,32.375,45.060,45.000,0.00,0.11,-272.58,-272.64,-20,574,-2,20.9,4.4,-21.6,20.9,4.6,-21.1,5.73,2.55,-14.7,26.9